User: anonymous   Login
Location: Unspecified
(50.1700°N, 6.8600°E)
Time: 14:42:59
(UTC+00:00)
Language:

Cosmos 1076 Rocket - Orbit

View from above orbital plane
View from above orbital plane
View from above satellite
View from above satellite

Ground track
Ground track

The orbit data is extracted from the following two-line orbital elements,

1 11267U 79011B   19288.71884239  .00000085  00000-0  64372-5 0  9995
2 11267  82.5240 146.4365 0015382 282.3314  77.6181 14.88946444202030
Epoch (UTC): 15 October 2019 17:15:07
Eccentricity: 0.0015382
inclination: 82.5240°
perigee height: 590 km
apogee height: 612 km
right ascension of ascending node: 146.4365°
argument of perigee: 282.3314°
revolutions per day: 14.88946444
mean anomaly at epoch: 77.6181°
orbit number at epoch: 20203

The dashed part of the orbit path shows where the satellite is in the earth's shadow,  

DLR